Weather History for KCGI - October, 2012

Change the Weather History Date:

Friday, October 19, 2012

  Actual Average Record
Temperature  
Mean Temperature 52 °F 57 °F  
Max Temperature 61 °F 70 °F 90 °F (2005)
Min Temperature 43 °F 44 °F 32 °F (1964)
Degree Days  
Heating Degree Days 13 9  
Month to date heating degree days 164 129  
Since 1 July heating degree days 210 178  
Cooling Degree Days 0 1  
Month to date cooling degree days 5 26  
Year to date cooling degree days 1769 1448  
Growing Degree Days 4 (Base 50)    
Moisture  
Dew Point 40 °F    
Average Humidity 65    
Maximum Humidity 80    
Minimum Humidity 50    
Precipitation  
Precipitation T in 0.12 in 1.23 in (1993)
Month to date precipitation 2.18 2.25  
Year to date precipitation 23.56 36.58  
Sea Level Pressure  
Sea Level Pressure 29.71 in    
Wind  
Wind Speed 10 mph (West)    
Max Wind Speed 16 mph    
Max Gust Speed 23 mph    
Visibility 10 miles    
Events      
T = Trace of Precipitation, MM = Missing Value Source: NWS Daily Summary

Daily Weather History Graph

Daily Weather History Graph

Search for Another Location

Airport or City:

Trip Planner

Search our weather history database for the weather conditions in past years. The results will help you decide how hot, cold, wet, or windy it might be!

Date:

Astronomy

Oct. 19, 2012 Rise Set
Actual Time 7:10 AM CDT 6:15 PM CDT
Civil Twilight 6:43 AM CDT 6:41 PM CDT
Nautical Twilight 6:13 AM CDT 7:12 PM CDT
Astronomical Twilight 5:43 AM CDT 7:42 PM CDT
Moon 11:48 AM CDT (10/19) 9:58 PM CDT (10/19)
Length of Visible Light 11h 57m
Length of Day
11h 04m
Waxing Crescent, 24% of the Moon is Illuminated
Oct 19
Waxing Crescent
Oct 21
First Quarter
Oct 29
Full
Nov 6
Last Quarter
Nov 13
New

Hourly Weather History & Observations

Time (CDT) Temp. Dew Point Humidity Pressure Visibility Wind Dir Wind Speed Gust Speed Precip Events Conditions
1:53 AM 53.1 °F 35.1 °F 50% 29.63 in 10.0 mi WSW 9.2 mph - N/A   Clear
2:53 AM 50.0 °F 36.0 °F 59% 29.62 in 10.0 mi West 3.5 mph - N/A   Clear
3:53 AM 52.0 °F 35.1 °F 53% 29.62 in 10.0 mi WSW 9.2 mph - N/A   Scattered Clouds
4:53 AM 51.1 °F 36.0 °F 56% 29.62 in 10.0 mi WSW 11.5 mph - N/A   Clear
5:53 AM 51.1 °F 37.0 °F 59% 29.63 in 10.0 mi WSW 9.2 mph - N/A   Clear
6:53 AM 51.1 °F 37.0 °F 59% 29.63 in 10.0 mi WSW 11.5 mph - N/A   Overcast
7:53 AM 51.1 °F 39.0 °F 63% 29.64 in 10.0 mi WSW 10.4 mph - 0.00 in   Overcast
8:53 AM 51.1 °F 39.0 °F 63% 29.66 in 10.0 mi WSW 8.1 mph - N/A   Overcast
9:53 AM 52.0 °F 39.9 °F 63% 29.67 in 10.0 mi WSW 12.7 mph - N/A   Overcast
10:53 AM 55.9 °F 41.0 °F 57% 29.67 in 10.0 mi West 16.1 mph 21.9 mph N/A   Overcast
11:53 AM 57.0 °F 39.9 °F 53% 29.69 in 10.0 mi West 13.8 mph 19.6 mph N/A   Overcast
12:53 PM 55.9 °F 39.0 °F 53% 29.70 in 10.0 mi WNW 16.1 mph 23.0 mph N/A   Overcast
1:53 PM 57.0 °F 41.0 °F 55% 29.71 in 10.0 mi West 15.0 mph - N/A   Overcast
2:53 PM 57.0 °F 39.9 °F 53% 29.72 in 10.0 mi WNW 15.0 mph 20.7 mph N/A   Overcast
3:53 PM 57.0 °F 41.0 °F 55% 29.73 in 10.0 mi WNW 11.5 mph - N/A   Overcast
4:53 PM 55.9 °F 41.0 °F 57% 29.75 in 10.0 mi WNW 11.5 mph 19.6 mph N/A   Overcast
5:53 PM 55.0 °F 41.0 °F 59% 29.78 in 10.0 mi WNW 10.4 mph - N/A   Overcast
6:53 PM 54.0 °F 43.0 °F 66% 29.80 in 10.0 mi West 8.1 mph - N/A   Overcast
7:53 PM 53.1 °F 43.0 °F 69% 29.81 in 10.0 mi West 4.6 mph - N/A   Overcast
8:53 PM 53.1 °F 42.1 °F 66% 29.83 in 10.0 mi WNW 6.9 mph - N/A   Overcast
9:53 PM 52.0 °F 44.1 °F 74% 29.84 in 10.0 mi West 8.1 mph - N/A   Overcast
10:53 PM 50.0 °F 44.1 °F 80% 29.83 in 10.0 mi WSW 5.8 mph - N/A   Overcast
11:53 PM 48.9 °F 42.1 °F 77% 29.83 in 10.0 mi WSW 6.9 mph - N/A   Clear